Temperature
17 17 17 17 17 17 17 17 17 17 17 17 17 17 17 17 17 17 17 17 17 17 16 16 16 17 17 16 16 16 16 16 16 16 16 16 16 16 16 16 16 16 15
17 17 17 17 17 17 16 16 16 16 16 16 16 16 16 17 17 17 17 17 16 16 16 16 16 16 16 16 16 16 16 16 16 16 16 16 16 16 16 16 15 15 15
17 17 17 17 16 16 16 16 16 16 16 16 16 16 16 16 16 16 16 16 16 16 16 16 16 16 16 16 16 16 16 16 16 16 16 16 16 16 16 16 15 15 15
17 16 16 16 16 16 16 16 16 16 16 16 16 16 16 16 16 16 16 16 16 16 16 16 16 16 16 16 16 16 16 16 16 16 16 16 16 16 15 15 15 15 15
16 16 16 16 16 16 16 16 16 16 16 16 16 16 16 16 16 16 16 16 16 16 16 16 16 16 16 16 16 16 16 16 16 16 15 15 15 15 15 15 15 15 15
16 16 16 16 16 16 16 16 16 16 16 16 16 16 16 16 16 16 16 16 16 16 16 16 16 16 15 15 15 15 15 15 15 15 15 15 15 15 15 15 15 15 15
16 16 16 16 16 16 15 15 15 15 16 16 16 16 16 16 16 16 16 16 16 16 16 16 15 15 15 15 15 15 15 15 15 15 15 15 15 15 15 15 15 15 15
16 16 16 16 15 15 15 15 15 15 15 16 15 15 15 15 16 16 16 16 16 16 15 15 15 15 15 15 15 15 15 15 15 15 15 15 15 15 15 15 15 15 15
16 16 16 15 15 15 15 15 15 15 15 15 15 16 16 16 16 16 16 16 15 15 15 15 15 15 15 15 15 15 15 15 15 15 15 15 15 15 15 15 15 15 15
16 16 16 15 15 15 15 15 15 15 15 15 15 16 16 16 16 15 15 15 15 15 15 15 15 15 15 15 15 15 15 15 14 14 14 15 15 15 15 15 15 15 14
16 16 15 15 15 15 15 15 15 15 15 15 15 15 15 16 16 16 15 15 15 15 15 15 15 15 15 15 15 15 15 14 14 14 14 14 14 14 14 14 14 14 14
16 16 15 15 15 15 15 15 15 15 15 15 15 15 15 15 15 15 15 15 15 15 15 15 15 15 15 15 15 14 14 14 14 14 14 14 14 14 14 14 14 14 14
16 16 16 15 15 15 15 15 15 15 15 15 15 15 15 15 15 15 15 15 15 15 15 15 15 15 15 15 14 14 14 14 14 14 14 14 14 14 14 14 14 14 14
16 16 16 15 15 15 15 15 15 15 15 15 15 15 15 15 15 15 15 15 15 15 15 15 15 15 15 14 14 14 14 14 14 14 14 14 14 14 14 14 14 14 14
16 16 16 15 15 15 15 15 15 15 15 15 14 14 14 14 14 14 15 15 15 15 15 15 15 15 15 14 14 14 14 14 14 14 14 14 14 13 13 13 13 13 14
16 16 16 16 15 15 15 15 15 14 14 14 14 14 14 14 14 14 14 14 14 14 14 14 14 14 14 14 14 14 14 14 14 14 13 13 13 13 13 13 13 13 13
16 16 16 16 15 15 15 15 15 15 14 14 14 14 14 14 14 14 14 14 14 14 14 14 14 14 14 14 14 14 14 14 14 13 13 13 13 13 13 13 13 13 13
16 16 16 16 16 15 15 15 15 15 15 15 14 14 14 14 14 14 14 14 14 14 14 14 14 14 14 14 14 14 14 14 14 14 13 13 13 13 13 13 13 13 13
16 16 16 16 16 15 15 15 15 15 15 15 14 14 14 14 14 14 14 14 14 13 13 14 14 14 14 14 14 14 14 14 14 14 14 14 13 13 13 13 13 13 13
16 16 16 16 16 16 15 15 15 15 15 15 14 14 14 14 14 14 14 14 13 13 13 13 14 14 14 14 14 14 14 14 14 14 14 14 14 14 13 13 13 13 13
16 16 16 16 16 16 15 15 15 15 15 15 14 14 14 14 14 14 14 14 13 13 13 13 14 14 14 14 14 14 14 14 14 14 14 14 14 14 13 13 13 13 13
16 16 16 16 16 16 16 15 15 15 15 14 14 14 14 14 14 14 14 14 13 13 13 13 13 14 14 14 14 13 13 13 13 14 14 14 14 14 14 13 13 13 13
16 16 16 16 16 16 16 15 15 15 15 14 14 14 14 14 14 14 13 13 13 13 13 13 13 13 13 13 13 13 13 13 13 13 13 13 14 13 14 13 13 13 13
16 16 16 16 16 16 15 15 15 14 14 14 14 14 14 14 13 13 13 13 13 13 13 13 13 13 13 13 13 12 12 12 12 13 12 12 13 13 13 13 13 13 13
16 16 16 15 15 15 15 15 14 14 14 14 14 14 13 13 13 13 13 13 13 13 13 13 12 13 13 12 12 12 12 12 12 12 12 12 12 12 12 13 13 13 13
15 15 15 15 15 14 14 14 14 14 13 13 13 13 13 13 13 12 12 12 12 13 12 12 12 12 12 12 12 12 11 11 11 11 12 11 11 11 11 12 12 12 12
Wind_Speed
4 4 3 3 3 3 3 2 2 2 2 2 1 2 3 4 4 4 3 6 7 8 8 9 9 9 9 10 10 10 10 10 10 10 10 10 10 10 10 10 10 10 10
6 4 3 3 3 3 3 2 2 2 2 1 1 1 1 2 3 2 3 4 6 7 8 8 8 8 8 9 10 10 10 10 10 11 11 10 10 10 10 10 10 10 10
8 6 4 3 3 4 4 2 2 2 2 1 2 2 1 1 2 2 2 2 3 5 7 7 7 8 8 9 9 10 10 10 11 11 11 11 11 11 10 11 11 11 11
9 7 4 3 4 5 4 2 2 2 2 2 1 1 2 1 0 1 1 2 2 3 4 5 7 7 8 8 9 10 10 10 11 12 12 12 12 12 11 11 12 12 12
9 8 5 4 6 4 3 2 2 2 2 1 1 2 2 1 1 0 0 1 2 2 3 3 4 5 7 8 8 9 10 11 11 12 12 13 13 13 13 13 13 13 13
9 8 6 5 6 4 3 2 3 2 2 2 2 3 3 2 1 1 1 1 1 2 2 2 2 3 5 6 7 8 9 10 11 12 13 13 14 14 15 14 14 14 14
10 8 5 5 4 4 3 4 3 3 2 1 3 3 3 3 3 2 1 1 1 0 1 1 1 2 2 4 5 7 7 8 9 11 12 13 14 15 16 16 16 15 15
10 9 7 5 4 4 4 3 3 3 2 2 2 2 2 3 3 3 2 1 1 1 1 1 1 2 2 2 2 4 6 7 8 9 10 11 12 14 16 17 17 17 16
9 9 9 7 5 4 4 3 3 4 3 2 1 3 3 3 1 2 3 3 2 1 1 1 1 1 2 2 2 2 4 5 5 6 7 9 10 11 13 15 17 18 18
8 9 9 8 6 4 4 4 3 3 4 2 1 1 1 2 3 0 2 2 2 2 2 1 1 0 1 2 2 2 2 3 3 3 4 5 7 8 10 11 12 15 17
6 8 9 8 6 5 5 4 4 3 3 3 3 2 2 2 2 2 1 2 2 2 2 2 1 1 1 2 3 3 3 3 3 3 3 3 5 6 8 9 10 11 13
3 5 7 7 6 5 5 5 4 5 3 3 3 2 2 2 2 2 2 1 1 2 2 2 1 1 1 2 3 3 3 3 3 3 3 4 5 6 7 7 8 9 10
4 6 6 6 5 6 6 5 5 4 4 4 4 2 2 2 2 3 3 2 0 1 2 1 1 2 2 2 2 2 3 4 4 4 4 5 5 6 6 7 7 8 8
6 6 7 7 7 7 7 6 4 4 4 4 4 4 2 2 2 3 3 3 1 1 1 2 2 2 2 2 3 3 4 5 5 6 6 6 7 7 7 8 8 8 8
6 7 8 7 7 7 7 7 4 5 5 4 4 4 3 2 2 2 3 3 4 2 2 2 2 2 2 3 4 4 6 7 7 8 8 8 9 9 9 9 9 9 10
6 8 8 8 8 7 7 7 5 5 5 4 4 4 3 2 2 2 3 2 3 4 3 2 2 2 3 3 4 5 7 8 9 10 11 11 10 10 10 10 11 11 11
8 8 8 9 9 9 8 7 7 7 7 6 5 6 5 4 3 3 3 3 3 3 3 3 2 2 2 3 3 5 6 7 8 11 12 12 12 12 12 12 12 12 12
8 8 8 8 9 9 9 9 9 9 9 8 8 7 7 5 5 4 4 4 4 4 4 4 2 2 3 3 3 4 5 6 8 11 12 13 14 14 13 13 13 13 14
8 8 8 9 9 9 10 10 10 9 10 9 9 9 8 7 7 6 6 5 5 5 4 4 4 3 3 3 3 4 4 5 7 9 11 12 14 15 15 15 15 15 15
8 9 9 10 9 9 9 10 9 9 9 9 9 10 9 10 9 9 7 7 6 5 5 4 5 4 4 3 3 4 5 4 4 6 8 10 12 13 15 16 16 17 17
9 9 9 8 8 8 8 9 9 10 9 9 9 9 10 11 12 10 8 8 7 6 5 5 5 4 4 4 4 3 5 6 5 5 5 6 7 8 11 13 16 17 18
7 7 9 9 9 8 11 13 11 9 9 10 9 9 9 10 11 13 13 11 10 8 8 6 6 7 8 6 5 5 5 5 6 3 3 5 4 7 9 11 15 18 19
7 7 8 8 9 9 11 12 13 9 8 8 8 7 7 7 8 8 10 12 12 13 12 9 10 10 8 7 6 6 7 7 8 5 4 9 7 9 11 14 18 21 22
5 6 6 7 7 8 9 10 11 9 7 7 7 7 7 7 7 8 8 8 8 9 10 10 10 11 10 8 8 8 8 8 8 7 6 8 9 10 11 13 18 21 23
4 4 3 4 5 5 7 9 9 6 6 7 7 6 7 7 8 8 7 8 8 7 9 12 14 14 14 14 10 6 6 7 9 8 6 6 8 9 9 10 15 19 22
1 1 1 1 2 3 4 6 8 5 5 5 5 5 7 8 7 6 7 7 9 8 6 6 7 10 11 11 11 9 9 9 8 7 6 6 7 6 6 6 8 10 12
Wind_Direction
155 149 139 130 125 127 122 104 94 91 76 75 107 138 149 157 165 170 184 188 189 191 187 186 185 185 186 187 185 184 184 182 180 177 178 180 179 177 175 174 173 173 170
162 154 144 142 143 144 134 121 108 95 73 65 58 80 130 151 168 178 191 204 202 199 199 198 195 195 196 195 195 195 195 193 190 190 190 189 188 187 187 185 185 185 182
169 160 152 156 161 151 137 116 90 78 76 66 46 42 77 121 150 177 193 204 210 209 211 211 207 209 209 205 204 203 204 203 200 200 198 197 196 197 197 197 196 195 193
171 160 158 159 157 146 135 119 94 80 65 65 60 31 40 47 40 194 194 208 211 217 219 221 220 219 219 217 212 209 208 209 210 208 207 206 205 204 205 206 205 203 203
166 159 154 150 146 138 132 135 92 97 91 73 75 49 27 25 350 347 252 230 218 216 222 227 230 230 230 227 224 219 213 214 215 214 215 214 214 212 211 212 212 210 210
159 151 141 140 141 130 123 115 103 77 82 82 75 55 30 12 18 17 327 295 235 209 212 226 236 247 243 236 231 226 219 217 218 219 221 223 220 218 217 217 217 217 217
157 147 137 135 139 140 143 135 114 91 63 63 82 46 19 21 33 24 1 360 358 314 211 220 225 241 270 253 238 234 230 227 226 224 225 228 225 223 222 222 221 220 220
158 154 145 146 144 134 128 130 128 117 74 59 113 104 44 4 5 17 18 24 5 5 326 247 215 228 238 250 255 246 241 236 233 228 230 233 230 229 229 227 226 225 225
162 156 155 150 148 146 150 148 144 136 129 71 75 142 147 199 307 350 13 23 11 16 355 335 225 218 222 224 238 243 245 242 242 239 237 235 233 235 236 233 231 228 229
163 161 158 155 152 152 154 160 147 140 136 135 94 58 107 146 146 86 347 0 9 14 350 353 359 288 218 217 227 237 231 222 229 240 245 237 237 241 241 239 237 235 234
166 167 162 159 157 159 161 153 144 145 142 149 153 137 100 72 85 139 182 333 356 356 349 340 329 307 256 227 225 223 218 219 225 236 241 238 238 244 247 246 246 246 242
167 174 168 166 166 163 164 160 156 152 148 143 149 152 156 153 158 145 162 222 306 322 334 335 319 298 275 234 233 227 223 225 235 240 251 255 251 250 251 253 255 254 251
181 188 177 173 173 175 171 162 158 162 161 156 161 164 168 166 152 148 142 157 227 317 327 328 311 293 267 238 246 248 239 241 246 255 268 276 275 267 263 264 264 262 261
190 182 181 180 180 176 174 167 167 175 171 170 172 163 160 169 167 164 157 149 135 340 328 304 316 298 279 262 261 264 261 258 260 265 273 279 282 279 275 273 272 269 268
188 182 182 182 183 181 176 169 177 181 173 179 178 173 170 180 179 178 164 159 155 184 250 279 291 306 287 267 265 261 264 269 272 273 275 277 279 279 277 275 273 271 269
189 180 185 188 188 187 182 177 178 182 178 187 186 180 182 186 183 177 175 172 165 172 213 245 254 281 292 283 266 257 261 269 271 273 273 272 272 273 273 272 272 270 269
191 192 192 191 192 192 188 187 192 186 190 197 196 194 201 189 188 187 177 175 178 172 206 250 250 271 276 277 292 279 269 264 267 269 269 268 267 268 268 269 271 270 268
195 196 193 194 199 198 193 195 200 198 199 204 205 201 210 200 199 198 193 195 196 196 201 230 245 251 253 263 274 279 276 267 265 270 269 267 265 266 265 265 268 268 266
195 194 193 199 204 203 201 205 205 204 207 210 207 207 212 203 209 207 205 207 208 206 208 222 244 243 256 262 272 274 275 273 271 270 269 265 264 264 263 264 266 266 264
196 198 202 206 207 206 206 208 208 211 214 217 216 216 216 211 215 212 212 214 211 209 209 224 244 251 255 255 251 263 278 270 275 279 271 268 265 264 263 263 264 263 262
207 203 204 208 207 205 209 208 210 215 218 224 225 224 224 222 220 216 217 216 210 215 218 228 243 251 255 246 246 243 266 282 280 261 270 267 261 263 266 265 263 262 261
209 204 207 208 208 213 213 208 206 213 217 222 227 230 231 230 229 225 225 220 208 213 223 229 243 249 259 255 251 246 256 273 282 244 240 269 261 268 267 264 262 263 263
207 210 214 211 215 219 214 210 207 207 212 219 224 228 234 233 225 232 235 233 228 224 219 224 243 250 256 250 246 256 248 250 260 259 252 278 268 268 269 266 262 262 262
203 211 216 216 219 227 218 213 208 207 215 221 221 223 229 238 234 228 234 238 240 238 234 233 241 249 251 251 243 254 265 266 266 259 231 265 274 272 275 271 265 261 262
210 210 202 209 219 238 221 211 202 206 217 225 226 224 226 236 240 225 229 243 252 256 247 239 242 251 256 257 250 250 255 258 272 273 226 240 270 275 276 273 269 263 260
199 184 169 186 213 240 235 215 198 203 220 232 231 230 227 231 239 230 231 238 252 260 260 262 258 264 264 265 251 233 238 251 264 272 241 225 261 270 278 267 267 271 269
Height
1556 1558 1560 1561 1562 1563 1564 1565 1565 1566 1567 1568 1569 1570 1571 1572 1573 1574 1575 1575 1576 1577 1578 1579 1580 1582 1583 1584 1585 1587 1588 1589 1591 1592 1593 1594 1595 1596 1598 1599 1600 1601 1602
1556 1558 1560 1561 1562 1563 1564 1565 1566 1566 1567 1568 1569 1570 1571 1572 1573 1574 1575 1575 1576 1577 1578 1579 1580 1581 1583 1584 1585 1587 1588 1590 1591 1592 1593 1594 1595 1596 1598 1599 1600 1601 1602
1556 1558 1559 1561 1562 1563 1564 1565 1565 1566 1567 1568 1569 1570 1571 1572 1573 1574 1574 1575 1576 1577 1578 1579 1580 1581 1582 1583 1584 1586 1587 1589 1590 1591 1593 1594 1595 1596 1597 1598 1599 1600 1601
1556 1558 1559 1561 1562 1563 1563 1564 1565 1566 1567 1568 1569 1570 1571 1572 1573 1573 1574 1575 1576 1577 1577 1578 1579 1580 1581 1582 1583 1585 1586 1588 1589 1590 1592 1593 1594 1595 1596 1597 1598 1599 1600
1556 1557 1559 1560 1561 1562 1563 1564 1565 1566 1567 1568 1569 1570 1571 1571 1572 1573 1574 1575 1575 1576 1577 1578 1578 1579 1580 1581 1582 1583 1585 1586 1587 1589 1590 1591 1592 1594 1595 1596 1597 1598 1599
1555 1556 1558 1559 1561 1562 1563 1564 1565 1566 1567 1567 1568 1569 1570 1571 1572 1573 1573 1574 1575 1576 1576 1577 1578 1578 1579 1580 1581 1582 1583 1584 1585 1587 1588 1589 1591 1592 1593 1594 1595 1596 1597
1554 1556 1557 1558 1560 1561 1563 1564 1564 1565 1566 1567 1568 1569 1570 1571 1572 1572 1573 1573 1574 1575 1576 1576 1577 1578 1578 1579 1579 1580 1581 1582 1583 1585 1586 1587 1588 1589 1590 1592 1593 1594 1595
1553 1555 1556 1558 1559 1560 1562 1563 1564 1565 1565 1566 1568 1569 1570 1572 1571 1572 1572 1573 1574 1574 1575 1576 1576 1577 1577 1578 1578 1579 1580 1581 1581 1582 1583 1584 1585 1586 1588 1589 1590 1591 1592
1552 1554 1555 1557 1558 1560 1561 1562 1563 1564 1565 1566 1567 1569 1569 1570 1570 1572 1572 1572 1573 1574 1574 1575 1575 1576 1577 1577 1577 1578 1578 1579 1580 1580 1581 1581 1583 1584 1585 1586 1587 1588 1589
1551 1553 1554 1556 1557 1558 1560 1561 1562 1563 1564 1565 1566 1567 1568 1569 1570 1570 1572 1572 1572 1573 1574 1574 1575 1575 1576 1576 1577 1577 1577 1577 1578 1578 1579 1579 1580 1580 1581 1582 1583 1584 1585
1550 1551 1553 1555 1556 1557 1559 1560 1561 1562 1563 1564 1565 1566 1567 1568 1568 1569 1570 1571 1572 1573 1573 1573 1574 1574 1575 1575 1576 1576 1576 1576 1576 1576 1576 1577 1577 1577 1578 1579 1580 1580 1581
1548 1550 1552 1553 1555 1556 1557 1558 1560 1561 1562 1563 1564 1565 1566 1567 1567 1568 1569 1570 1570 1571 1572 1572 1573 1573 1574 1574 1574 1575 1575 1575 1575 1575 1574 1574 1574 1575 1575 1575 1576 1577 1578
1546 1548 1550 1552 1553 1554 1556 1557 1558 1559 1560 1561 1562 1563 1564 1565 1566 1567 1568 1568 1569 1570 1570 1571 1571 1572 1573 1573 1573 1573 1573 1573 1573 1573 1572 1572 1572 1572 1572 1572 1572 1573 1573
1545 1547 1548 1550 1552 1553 1554 1555 1556 1557 1558 1559 1560 1561 1562 1563 1564 1565 1566 1567 1567 1568 1568 1569 1570 1570 1571 1571 1572 1572 1572 1571 1571 1571 1570 1570 1569 1569 1569 1569 1569 1569 1569
1543 1545 1546 1548 1550 1551 1552 1553 1554 1555 1556 1557 1558 1559 1560 1561 1562 1563 1564 1565 1566 1566 1566 1567 1567 1568 1569 1569 1569 1569 1569 1569 1569 1568 1567 1567 1566 1566 1566 1566 1566 1566 1566
1540 1542 1544 1546 1547 1549 1550 1551 1552 1553 1554 1555 1556 1557 1558 1559 1560 1560 1561 1562 1563 1564 1564 1564 1565 1566 1566 1566 1567 1567 1566 1566 1566 1565 1564 1564 1563 1563 1563 1562 1562 1562 1562
1537 1540 1542 1543 1545 1546 1547 1548 1549 1550 1551 1552 1553 1554 1555 1556 1557 1558 1558 1559 1560 1561 1561 1561 1562 1563 1563 1563 1564 1563 1563 1562 1562 1562 1561 1560 1560 1559 1559 1559 1558 1558 1558
1534 1537 1539 1541 1542 1544 1545 1546 1547 1548 1548 1549 1550 1551 1552 1553 1554 1555 1555 1556 1557 1557 1558 1558 1558 1559 1559 1560 1560 1559 1559 1559 1558 1558 1557 1557 1556 1556 1555 1555 1554 1554 1553
1531 1534 1536 1537 1539 1540 1541 1542 1544 1544 1545 1546 1547 1548 1549 1550 1550 1551 1552 1553 1553 1554 1554 1554 1555 1555 1556 1556 1555 1555 1555 1555 1554 1554 1553 1552 1552 1551 1551 1550 1549 1549 1548
1527 1529 1532 1533 1535 1536 1537 1538 1540 1541 1541 1542 1543 1544 1545 1546 1547 1548 1548 1549 1550 1550 1550 1550 1551 1551 1551 1551 1551 1551 1550 1550 1549 1549 1548 1547 1547 1546 1545 1545 1544 1543 1542
1523 1525 1527 1529 1530 1531 1532 1534 1535 1536 1537 1537 1538 1539 1540 1541 1542 1543 1544 1545 1545 1546 1546 1546 1546 1546 1546 1546 1546 1546 1544 1544 1543 1543 1542 1542 1541 1540 1539 1539 1538 1537 1536
1519 1520 1522 1523 1524 1526 1527 1528 1530 1530 1531 1532 1533 1534 1535 1537 1538 1538 1539 1540 1541 1541 1541 1541 1541 1540 1541 1541 1541 1540 1539 1538 1536 1537 1536 1535 1534 1533 1532 1532 1531 1530 1529
1514 1515 1517 1518 1519 1520 1521 1523 1524 1525 1526 1527 1528 1529 1530 1531 1532 1533 1534 1535 1535 1535 1536 1536 1535 1535 1535 1535 1535 1534 1533 1531 1530 1530 1528 1525 1526 1525 1525 1523 1523 1522 1521
1509 1510 1511 1513 1514 1515 1516 1517 1519 1519 1520 1521 1522 1523 1525 1525 1526 1527 1528 1528 1529 1529 1530 1529 1529 1529 1529 1529 1528 1527 1526 1524 1522 1522 1521 1518 1517 1516 1516 1514 1514 1513 1512
1504 1505 1506 1507 1508 1509 1510 1511 1512 1513 1514 1515 1516 1517 1518 1519 1520 1521 1521 1521 1521 1522 1523 1523 1523 1522 1522 1522 1521 1519 1518 1516 1513 1513 1513 1510 1508 1507 1505 1505 1505 1504 1503
1500 1501 1501 1502 1503 1504 1506 1506 1507 1507 1508 1509 1511 1511 1512 1513 1513 1514 1514 1514 1514 1514 1515 1515 1515 1515 1514 1514 1513 1512 1510 1508 1506 1504 1504 1503 1500 1499 1495 1494 1495 1495 1494